Regional Weather Roundup
Issued by NWS

Home | Current Version | Previous Version | Graphics & Text | Print | Product List | Glossary On
Versions: 1 2 3 4 5 6 7 8 9 10 11 12 13 14 15 16 17 18 19 20 21 22 23 24 25 26 27 28 29 30 31 32 33 34 35 36 37 38 39 40 41 42 43 44 45 46 47 48 49 50
000
ASUS45 KBOI 171710
RWRID

IDAHO REGIONAL WEATHER ROUNDUP
NATIONAL WEATHER SERVICE BOISE ID
1000 AM MST FRI NOV 17 2017

NOTE: "FAIR" INDICATES FEW OR NO CLOUDS BELOW 12000 FEET
WITH NO SIGNIFICANT WEATHER AND/OR OBSTRUCTIONS TO VISIBILITY

IDZ012-014-171800-
SOUTHWEST IDAHO


CITY           SKY/WX    TMP DP  RH WIND       PRES   REMARKS
BOISE          MOSUNNY   42  29  59 NW14      29.95R
CALDWELL       MOSUNNY   43  30  60 W8        29.98R
MOUNTAIN HOME  MOSUNNY   39  39 100 W12       29.95R WCI  32
$$

IDZ016-017-171800-
SOUTHCENTRAL IDAHO


CITY           SKY/WX    TMP DP  RH WIND       PRES   REMARKS
BURLEY         CLOUDY    34  32  92 W10       29.86R WCI  26
JEROME         CLOUDY    34  32  92 SW15      29.89R WCI  24
TWIN FALLS     LGT SNOW  32  32 100 SW17      29.90R FOG     WCI  21
$$

IDZ019>023-171800-
SOUTHEAST IDAHO


CITY           SKY/WX    TMP DP  RH WIND       PRES   REMARKS
IDAHO FALLS    CLOUDY    35  33  92 S20       29.77R WCI  24
POCATELLO      CLOUDY    36  33  89 SW23G31   29.82R WCI  24
REXBURG        CLOUDY    34  33  96 SW10      29.76R WCI  26
$$

IDZ006-010-011-018-031-032-171800-
CENTRAL IDAHO MOUNTAINS


CITY           SKY/WX    TMP DP  RH WIND       PRES   REMARKS
MCCALL         PTSUNNY   28  24  85 CALM      29.85R
HAILEY         PTSUNNY   32  30  93 SE5       29.81R WCI  27
STANLEY          N/A     27  19  72 NW5       29.81R WCI  22
SALMON         CLOUDY    34  28  80 VRB5      29.83R WCI  30
CHALLIS        CLOUDY    35  22  58 W13       29.79S WCI  26
$$

IDZ002-004-006-007-026-171800-
NORTHERN IDAHO


CITY           SKY/WX    TMP DP  RH WIND       PRES   REMARKS
LEWISTON       SUNNY     43  35  73 E5        29.92R
LOWELL           N/A     38  35  89 CALM      29.94R
COEUR D`ALENE  CLOUDY    37  30  75 SW10      29.85R WCI  30
MULLAN PASS    SNOW      23  20  88 VRB3      29.71R VSB 1/2
$$



USA.gov is the U.S. government's official web portal to all federal, state and local government web resources and services.